Location: Carnetin
(48.9010°N, 2.7059°E)
Time: 06:56:36
(UTC+00:00)

CZ-4C R/B - Visible Passes

Search period start: 21 May 2022 00:00
Search period end: 31 May 2022 00:00
Orbit: 397 x 469 km, 97.7° (Epoch: 20 May)

Date Brightness Start Highest point End Pass type
(mag) Time Alt. Az. Time Alt. Az. Time Alt. Az.
23 May 5.9 20:13:05 10° NNW 20:15:18 18° WNW 20:17:29 10° WSW visible
25 May 6.1 20:25:43 10° NNW 20:27:19 13° WNW 20:28:56 10° W visible
27 May 6.8 20:38:57 10° NW 20:39:12 10° WNW 20:39:27 10° WNW visible
